timestamp,surface_pressure_avg,surface_temp_avg,battery_voltage,lat,long
2022-03-14 00:09:01+00:00,259.7247,1.35,11.86,47.84626,-54.09684
2022-03-14 00:19:01+00:00,250.5981,1.39,11.86,47.84626,-54.09684
2022-03-14 00:29:01+00:00,251.9398,1.4,11.86,47.84626,-54.09684
2022-03-14 00:39:01+00:00,257.2314,1.4,11.86,47.84626,-54.09684
2022-03-14 00:49:01+00:00,248.808,1.4,11.86,47.84626,-54.09684
2022-03-14 00:59:01+00:00,238.1147,1.4,11.86,47.84626,-54.09684
2022-03-14 01:09:01+00:00,236.9681,1.4,11.86,47.84626,-54.09684
2022-03-14 01:19:00+00:00,236.0848,1.4,11.86,47.84626,-54.09684
2022-03-14 01:29:00+00:00,223.8798,1.4,11.86,47.84626,-54.09684
2022-03-14 01:39:00+00:00,214.3748,1.4,11.86,47.84626,-54.09684
2022-03-14 01:49:00+00:00,221.2481,1.4,11.86,47.84626,-54.09684
2022-03-14 01:59:00+00:00,217.3431,1.4,11.86,47.84626,-54.09684
2022-03-14 02:09:00+00:00,204.1948,1.4,11.86,47.84626,-54.09684
2022-03-14 02:19:00+00:00,202.1815,1.4,11.86,47.84626,-54.09684
2022-03-14 02:29:00+00:00,204.8665,1.38,11.86,47.84626,-54.09684
2022-03-14 02:39:00+00:00,200.7747,1.3,11.86,47.84626,-54.09684
2022-03-14 02:49:00+00:00,200.4248,1.3,11.86,47.84626,-54.09684
2022-03-14 02:59:00+00:00,208.5531,1.3,11.86,47.84626,-54.09684
2022-03-14 03:09:00+00:00,208.8631,1.3,11.86,47.84626,-54.09684
2022-03-14 03:19:00+00:00,202.6331,1.3,11.86,47.84626,-54.09684
2022-03-14 03:29:00+00:00,211.5431,1.3,11.86,47.84626,-54.09684
2022-03-14 03:39:00+00:00,215.8531,1.3,11.86,47.84626,-54.09684
2022-03-14 03:49:00+00:00,208.4098,1.3,11.86,47.84626,-54.09684
2022-03-14 03:59:00+00:00,206.5298,1.3,11.86,47.84626,-54.09684
2022-03-14 04:09:00+00:00,211.1281,1.3,11.86,47.84626,-54.09684
2022-03-14 04:19:00+00:00,215.7264,1.37,11.86,47.84626,-54.09684
2022-03-14 04:29:00+00:00,217.9698,1.3,11.86,47.84626,-54.09684
2022-03-14 04:39:00+00:00,224.3098,1.3,11.86,47.84626,-54.09684
2022-03-14 04:49:00+00:00,232.2464,1.3,11.86,47.84626,-54.09684
2022-03-14 04:59:00+00:00,233.7831,1.3,11.86,47.84626,-54.09684
2022-03-14 05:09:00+00:00,237.4281,1.3,11.86,47.84626,-54.09684
2022-03-14 05:19:00+00:00,245.2964,1.3,11.86,47.84626,-54.09684
2022-03-14 05:29:00+00:00,252.1248,1.3,11.86,47.84626,-54.09684
2022-03-14 05:39:00+00:00,256.2515,1.29,11.86,47.84626,-54.09684
2022-03-14 05:49:00+00:00,261.1581,1.3,11.86,47.84626,-54.09684
2022-03-14 05:59:00+00:00,270.0547,1.4,11.86,47.84626,-54.09684
2022-03-14 06:09:00+00:00,270.8331,1.1,11.86,47.84626,-54.09684
2022-03-14 06:19:00+00:00,273.873,1.09,11.77,47.84626,-54.09684
2022-03-14 06:29:00+00:00,287.1047,1.1,11.77,47.84626,-54.09684
2022-03-14 06:39:00+00:00,295.808,1.19,11.77,47.84626,-54.09684
2022-03-14 06:49:00+00:00,301.3997,1.1,11.77,47.84626,-54.09684
2022-03-14 06:59:00+00:00,307.1747,1.18,11.77,47.84626,-54.09684
2022-03-14 07:09:00+00:00,309.9397,1.2,11.77,47.84626,-54.09684
2022-03-14 07:19:00+00:00,308.948,1.2,11.77,47.84626,-54.09684
2022-03-14 07:29:00+00:00,307.6864,1.29,11.77,47.84626,-54.09684
2022-03-14 07:39:00+00:00,315.4613,1.29,11.77,47.84626,-54.09684
2022-03-14 07:49:00+00:00,326.8463,1.2,11.77,47.84626,-54.09684
2022-03-14 07:59:00+00:00,328.0247,1.2,11.77,47.84626,-54.09684
2022-03-14 08:09:00+00:00,323.0513,1.18,11.77,47.84626,-54.09684
2022-03-14 08:19:01+00:00,327.9012,1.15,11.77,47.84626,-54.09684
2022-03-14 08:29:01+00:00,339.093,1.35,11.77,47.84626,-54.09684
2022-03-14 08:39:01+00:00,344.4063,1.4,11.77,47.84626,-54.09684
2022-03-14 08:49:01+00:00,348.5712,1.37,11.77,47.84626,-54.09684
2022-03-14 08:59:01+00:00,356.9629,1.28,11.77,47.84626,-54.09684
2022-03-14 09:09:01+00:00,362.6229,1.0,11.77,47.84626,-54.09684
2022-03-14 09:19:00+00:00,359.6813,0.9,11.77,47.84626,-54.09684
2022-03-14 09:29:00+00:00,362.2863,0.91,11.77,47.84626,-54.09684
2022-03-14 09:39:00+00:00,370.1646,1.3,11.77,47.84626,-54.09684
2022-03-14 09:49:00+00:00,372.0345,1.32,11.77,47.84626,-54.09684
2022-03-14 09:59:00+00:00,373.0379,1.11,11.77,47.84626,-54.09684
2022-03-14 10:09:00+00:00,374.733,1.3,11.77,47.84626,-54.09684
2022-03-14 10:19:00+00:00,371.4613,1.33,11.77,47.84626,-54.09684
2022-03-14 10:29:00+00:00,369.6446,1.2,11.77,47.84626,-54.09684
2022-03-14 10:39:00+00:00,363.2962,1.24,11.77,47.84626,-54.09684
2022-03-14 10:49:00+00:00,365.3329,1.4,11.77,47.84626,-54.09684
2022-03-14 10:59:00+00:00,364.7496,1.4,11.77,47.84626,-54.09684
2022-03-14 11:09:00+00:00,356.108,1.33,11.77,47.84626,-54.09684
2022-03-14 11:19:01+00:00,350.7997,1.28,11.77,47.84626,-54.09684
2022-03-14 11:29:01+00:00,345.2313,1.0,11.77,47.84626,-54.09684
2022-03-14 11:39:01+00:00,342.5829,1.13,11.77,47.84626,-54.09684
2022-03-14 11:49:01+00:00,338.1763,1.17,11.77,47.84626,-54.09684
2022-03-14 11:59:01+00:00,339.9979,1.3,11.77,47.84626,-54.09684
2022-03-14 12:09:01+00:00,336.2446,1.3,11.77,47.84626,-54.09684
2022-03-14 12:19:00+00:00,326.023,1.3,11.77,47.84626,-54.09684
2022-03-14 12:29:00+00:00,329.49300000000005,1.3,11.77,47.84626,-54.09684
2022-03-14 12:39:00+00:00,331.6946,1.3,11.77,47.84626,-54.09684
2022-03-14 12:49:00+00:00,321.1196,1.3,11.77,47.84626,-54.09684
2022-03-14 12:59:00+00:00,313.0314,1.2,11.77,47.84626,-54.09684
2022-03-14 13:09:00+00:00,311.7947,1.24,11.77,47.84626,-54.09684
2022-03-14 13:19:00+00:00,313.5514,1.29,11.77,47.84626,-54.09684
2022-03-14 13:29:00+00:00,304.4514,1.3,11.77,47.84626,-54.09684
2022-03-14 13:39:00+00:00,304.1214,1.26,11.77,47.84626,-54.09684
2022-03-14 13:49:00+00:00,306.4131,1.2,11.77,47.84626,-54.09684
2022-03-14 13:59:00+00:00,303.1414,1.28,11.77,47.84626,-54.09684
2022-03-14 14:09:00+00:00,295.8347,1.3,11.77,47.84626,-54.09684
2022-03-14 14:19:00+00:00,286.5563,1.33,11.77,47.84626,-54.09684
2022-03-14 14:29:00+00:00,282.1314,1.34,11.77,47.84626,-54.09684
2022-03-14 14:39:00+00:00,278.1381,1.3,11.77,47.84626,-54.09684
2022-03-14 14:49:00+00:00,267.298,1.3,11.77,47.84626,-54.09684
2022-03-14 14:59:00+00:00,264.1681,1.3,11.77,47.84626,-54.09684
2022-03-14 15:09:00+00:00,267.8064,1.35,11.77,47.84626,-54.09684
2022-03-14 15:19:01+00:00,268.4064,1.35,11.77,47.84626,-54.09684
2022-03-14 15:29:01+00:00,263.4247,1.3,11.77,47.84626,-54.09684
2022-03-14 15:39:01+00:00,268.9864,1.28,11.77,47.84626,-54.09684
2022-03-14 15:49:01+00:00,274.8531,1.3,11.77,47.84626,-54.09684
2022-03-14 15:59:01+00:00,272.5031,1.31,11.77,47.84626,-54.09684
2022-03-14 16:09:01+00:00,267.018,1.3,11.77,47.84626,-54.09684
2022-03-14 16:19:00+00:00,273.828,1.33,11.77,47.84626,-54.09684
2022-03-14 16:29:00+00:00,278.4314,1.4,11.77,47.84626,-54.09684
2022-03-14 16:39:00+00:00,276.0563,1.4,11.77,47.84626,-54.09684
2022-03-14 16:49:00+00:00,268.6031,1.38,11.77,47.84626,-54.09684
2022-03-14 16:59:00+00:00,270.7365,1.39,11.77,47.84626,-54.09684
2022-03-14 17:09:00+00:00,275.5631,1.38,11.77,47.84626,-54.09684
2022-03-14 17:19:01+00:00,279.7781,1.4,11.77,47.84626,-54.09684
2022-03-14 17:29:01+00:00,278.5198,1.44,11.77,47.84626,-54.09684
2022-03-14 17:39:01+00:00,278.0697,1.4,11.77,47.84626,-54.09684
2022-03-14 17:49:01+00:00,276.6397,1.4,11.77,47.84626,-54.09684
2022-03-14 17:59:01+00:00,278.9097,1.4,11.77,47.84626,-54.09684
2022-03-14 18:09:01+00:00,279.4731,1.47,11.77,47.84626,-54.09684
2022-03-14 18:19:00+00:00,278.5314,1.46,11.77,47.84626,-54.09684
2022-03-14 18:29:00+00:00,278.4048,1.4,11.77,47.84626,-54.09684
2022-03-14 18:39:00+00:00,282.3147,1.4,11.77,47.84626,-54.09684
2022-03-14 18:49:00+00:00,284.2564,1.47,11.77,47.84626,-54.09684
2022-03-14 18:59:00+00:00,286.748,1.5,11.77,47.84626,-54.09684
2022-03-14 19:09:00+00:00,290.793,1.5,11.77,47.84626,-54.09684
2022-03-14 19:19:01+00:00,295.2264,1.5,11.77,47.84626,-54.09684
2022-03-14 19:29:01+00:00,299.0247,1.5,11.77,47.84626,-54.09684
2022-03-14 19:39:01+00:00,303.6897,1.5,11.77,47.84626,-54.09684
2022-03-14 19:49:01+00:00,304.3297,1.5,11.77,47.84626,-54.09684
2022-03-14 19:59:01+00:00,308.3363,1.5,11.77,47.84626,-54.09684
2022-03-14 20:09:01+00:00,307.0297,1.5,11.77,47.84626,-54.09684
2022-03-14 20:19:01+00:00,312.483,1.5,11.77,47.84626,-54.09684
2022-03-14 20:29:01+00:00,312.8113,1.5,11.77,47.84626,-54.09684
2022-03-14 20:39:01+00:00,312.4012,1.49,11.77,47.84626,-54.09684
2022-03-14 20:49:01+00:00,310.7847,1.5,11.77,47.84626,-54.09684
2022-03-14 20:59:01+00:00,311.8029,1.49,11.77,47.84626,-54.09684
2022-03-14 21:09:01+00:00,310.558,1.48,11.77,47.84626,-54.09684
2022-03-14 21:19:01+00:00,313.058,1.48,11.77,47.84626,-54.09684
2022-03-14 21:29:01+00:00,313.0313,1.49,11.77,47.84626,-54.09684
2022-03-14 21:39:01+00:00,310.613,1.5,11.77,47.84626,-54.09684
2022-03-14 21:49:01+00:00,309.4013,1.49,11.77,47.84626,-54.09684
2022-03-14 21:59:01+00:00,308.9963,1.49,11.77,47.84626,-54.09684
2022-03-14 22:09:01+00:00,311.4897,1.49,11.77,47.84626,-54.09684
2022-03-14 22:19:00+00:00,310.948,1.2,11.77,47.84626,-54.09684
2022-03-14 22:29:00+00:00,304.173,1.2,11.77,47.84626,-54.09684
2022-03-14 22:39:00+00:00,300.123,1.3,11.77,47.84626,-54.09684
2022-03-14 22:49:00+00:00,298.353,1.29,11.77,47.84626,-54.09684
2022-03-14 22:59:00+00:00,293.4347,1.27,11.77,47.84626,-54.09684
2022-03-14 23:09:00+00:00,282.1664,1.12,11.77,47.84626,-54.09684
2022-03-14 23:19:01+00:00,279.5997,1.06,11.77,47.84626,-54.09684
2022-03-14 23:29:01+00:00,280.9014,1.0,11.77,47.84626,-54.09684
2022-03-14 23:39:01+00:00,273.1115,0.7,11.77,47.84626,-54.09684
2022-03-14 23:49:01+00:00,265.4014,0.63,11.77,47.84626,-54.09684
2022-03-14 23:59:01+00:00,264.4464,0.88,11.77,47.84626,-54.09684
